Regional Weather Roundup
Issued by NWS

Home | Current Version | Previous Version | Text Only | Print | Product List | Glossary On
Versions: 1 2 3 4 5 6 7 8 9 10 11 12 13 14 15 16 17 18 19 20 21 22 23 24 25 26 27 28 29 30 31 32 33 34 35 36 37 38 39 40 41 42 43 44 45 46 47 48 49 50
000
ASUS42 KFFC 300410
RWRGA
WEATHER ROUNDUP FOR GEORGIA
NATIONAL WEATHER SERVICE PEACHTREE CITY GA
1200 AM EDT THU MAR 30 2017

NOTE: "FAIR" INDICATES FEW OR NO CLOUDS BELOW 12,000 FEET WITH NO
SIGNIFICANT WEATHER AND/OR OBSTRUCTIONS TO VISIBILITY.

* = USE WITH CAUTION. THE STATIONS MARKED WITH AN ASTERISK MAY NOT
REPORT WEATHER SUCH AS PRECIPITATION, FOG, OR THUNDER AND ARE NOT
QUALITY CONTROLLED BY NWS.

THE REMARK "TC" DENOTES TEMPERATURE READING IN DEGREES CELSIUS.

GAZ001>058-300500-
NORTH GEORGIA

CITY           SKY/WX    TMP DP  RH WIND       PRES   REMARKS
ATLANTA        MOCLDY    72  60  66 S6        29.99F
ATHENS         CLEAR     66  55  67 SE3       30.00F
CHAMBLEE       CLOUDY    72  55  55 CALM      29.99F
PEACHTREE CITY PTCLDY    65  61  87 CALM      29.99F
ROME           CLEAR     67  59  75 CALM      29.95F
WEST ATLANTA   MOCLDY    68  58  70 CALM      29.98F
GAINESVILLE    CLEAR     70  53  54 SE5       30.03S
CARTERSVILLE   CLEAR     64  59  83 CALM      29.97F


CITY           SKY/WX    TMP DP  RH WIND       PRES   REMARKS
DALTON*        CLEAR     64  59  82 SE3       29.95F
MARIETTA       PTCLDY    70  57  62 SE3       29.99F
CANTON*        MOCLDY    68  48  49 CALM      30.01F
$$

GAZ059>098-102>109-300500-
CENTRAL GEORGIA

CITY           SKY/WX    TMP DP  RH WIND       PRES   REMARKS
AUGUSTA-BUSH   CLEAR     62  56  80 CALM      30.01R
AUGUSTA-DANIEL CLEAR     74  51  44 E6        30.03R
COLUMBUS       CLEAR     70  57  63 CALM      29.97F
MACON          CLEAR     65  60  84 E3        29.99F
ROBINS AFB     CLEAR     65  62  87 CALM      29.98F


CITY           SKY/WX    TMP DP  RH WIND       PRES   REMARKS
LAGRANGE*      CLEAR     63  63 100 CALM      29.98F
SYLVANIA*      PTCLDY   N/A N/A N/A SE3       30.05R
MILLEDGEVILLE* CLEAR     64  63  94 CALM      30.00F
$$

GAZ099>101-110>166-300500-
SOUTH GEORGIA

CITY           SKY/WX    TMP DP  RH WIND       PRES   REMARKS
SAVANNAH       PTCLDY    65  61  87 E7        30.05R
VALDOSTA       CLEAR     63  53  70 CALM      30.01F
ALMA           MOCLDY    73  65  75 SE6       30.02R
ST SIMONS      CLOUDY    69  66  90 VRB3      30.02F
FT STEWART     PTCLDY    64  59  84 CALM      30.02R
ALBANY         CLEAR     69  56  62 SW3       30.02R HAZE
HUNTER AFB     PTCLDY    65  65 100 E6        30.02R
MOODY AFB      CLEAR     71  54  55 W7        30.00F
BRUNSWICK      CLOUDY    68  66  94 CALM      30.04S


CITY           SKY/WX    TMP DP  RH WIND       PRES   REMARKS
BAINBRIDGE*    CLEAR     68  55  64 CALM      30.00F
MOULTRIE*      CLEAR     70  59  68 CALM      30.02F
VIDALIA*       PTCLDY    72  63  73 SE6       30.02S
WAYCROSS*      CLOUDY    75  69  81 CALM      30.02S
DOUGLAS*       CLOUDY    70  61  73 CALM      30.02F
$$




USA.gov is the U.S. government's official web portal to all federal, state and local government web resources and services.